Location: Newark
(7.0858°N, 171.3717°E)
Time: 07:57:44
(UTC+00:00)

S-56A Canister/Altair - Pass Details

Date: 27 November 2020
Orbit: 633 x 2499 km, 38.9° (Epoch: 27 January)

Event Time Altitude Azimuth Distance (km) Brightness Sun altitude
Rises 06:17:32 0° 238° (WSW) 6,169 14.4 -1.5°
Reaches altitude 10° 06:21:47 10° 241° (WSW) 5,104 13.7 -2.5°
Maximum altitude 06:36:01 61° 318° (NW) 2,296 10.1 -5.8°
Drops below altitude 10° 06:46:25 10° 37° (NE) 3,812 10.6 -8.2°
Enters shadow 06:48:07 - 40° (NE) 4,275 10.8 -8.6°
Sets 06:49:09 0° 41° (NE) 4,566 - -8.8°
